Tracking 23582 objects as of 31-Jul-2021
HD Live streaming from Space Station
objects crossing your sky now

RAAVANA1

Track RAAVANA1 now!
10-day predictions
RAAVANA1 is classified as:


NORAD ID: 44330
Int'l Code: 1998-067QF
Perigee: 328.7 km
Apogee: 331.6 km
Inclination: 51.6 °
Period: 91.0 minutes
Semi major axis: 6701 km
RCS: Unknown
Launch date: November 20, 1998
Source: Democratic Socialist Republic of Sri Lanka (LKA)
Launch site: TYURATAM MISSILE AND SPACE COMPLEX (TTMTR)

Uplink (MHz):
Downlink (MHz): 437.375
Beacon (MHz): 437.375
Mode: 4800bps GMSK CW
Call sign: JG6YLE
Status: Active

aabbcc
Your satellite tracking list
Your tracking list is empty




NASA's NSSDC Master Catalog

Two Line Element Set (TLE):
1 44330U 98067QF  21211.62465963  .00091456  00000-0  42504-3 0  9995
2 44330  51.6292  62.1585 0002203 129.1925 230.9273 15.82630240120958
Source of the keplerian elements: AFSPC